�������l�o���
Date,Time,MP-1(��Sv/h),MP-2(��Sv/h),MP-3(��Sv/h),MP-4(��Sv/h),MP-5(��Sv/h),MP-6(��Sv/h),MP-7(��Sv/h),MP-8(��Sv/h),����,����(m/s),���J
2022/11/13,00:00,0.593,0.854,0.535,1.077,0.756,0.341,0.598,0.564,��쐼,6.4,��
2022/11/13,00:10,0.592,0.855,0.536,1.076,0.757,0.339,0.599,0.563,��쐼,6.3,��
2022/11/13,00:20,0.595,0.854,0.534,1.075,0.756,0.340,0.599,0.563,��쐼,5.7,��
2022/11/13,00:30,0.593,0.856,0.535,1.075,0.755,0.341,0.599,0.564,��,6.2,��
2022/11/13,00:40,0.592,0.856,0.536,1.074,0.756,0.342,0.598,0.564,��,5.8,��
2022/11/13,00:50,0.592,0.855,0.534,1.077,0.755,0.341,0.601,0.566,��,5.4,��
2022/11/13,01:00,0.592,0.855,0.535,1.075,0.755,0.341,0.600,0.563,��,5.0,��
2022/11/13,01:10,0.593,0.856,0.536,1.075,0.756,0.342,0.598,0.564,��,5.1,��
2022/11/13,01:20,0.594,0.854,0.534,1.075,0.757,0.340,0.600,0.565,��,5.4,��
2022/11/13,01:30,0.592,0.853,0.536,1.074,0.754,0.340,0.599,0.565,��,5.9,��
2022/11/13,01:40,0.594,0.853,0.534,1.074,0.756,0.339,0.600,0.563,��쐼,6.4,��
2022/11/13,01:50,0.592,0.856,0.535,1.074,0.755,0.340,0.600,0.565,��,6.9,��
2022/11/13,02:00,0.593,0.855,0.534,1.076,0.756,0.341,0.599,0.564,��쐼,5.3,��
2022/11/13,02:10,0.592,0.857,0.534,1.073,0.754,0.341,0.599,0.563,��쐼,4.9,��
2022/11/13,02:20,0.593,0.856,0.535,1.074,0.755,0.340,0.600,0.565,��쐼,4.3,��
2022/11/13,02:30,0.594,0.856,0.534,1.076,0.754,0.340,0.599,0.565,��쐼,5.4,��
2022/11/13,02:40,0.592,0.855,0.534,1.072,0.754,0.342,0.601,0.565,��쐼,5.9,��
2022/11/13,02:50,0.593,0.856,0.535,1.076,0.756,0.340,0.600,0.564,�쐼,5.7,��
2022/11/13,03:00,0.594,0.855,0.535,1.074,0.755,0.341,0.599,0.564,�쐼,5.7,��
2022/11/13,03:10,0.594,0.856,0.535,1.077,0.755,0.340,0.600,0.563,��쐼,4.8,��
2022/11/13,03:20,0.594,0.854,0.535,1.073,0.755,0.341,0.600,0.563,��,5.9,��
2022/11/13,03:30,0.593,0.857,0.534,1.074,0.756,0.341,0.601,0.565,��쐼,6.2,��
2022/11/13,03:40,0.593,0.856,0.535,1.076,0.756,0.340,0.600,0.565,��쐼,5.2,��
2022/11/13,03:50,0.594,0.856,0.534,1.074,0.758,0.341,0.600,0.564,��쐼,4.2,��
2022/11/13,04:00,0.592,0.854,0.534,1.076,0.756,0.341,0.600,0.564,��쐼,4.9,��
2022/11/13,04:10,0.593,0.856,0.535,1.075,0.756,0.342,0.599,0.564,��,5.2,��
2022/11/13,04:20,0.592,0.855,0.534,1.074,0.756,0.342,0.601,0.565,��쐼,3.3,��
2022/11/13,04:30,0.591,0.854,0.534,1.075,0.758,0.341,0.599,0.564,�쐼,3.6,��
2022/11/13,04:40,0.593,0.858,0.535,1.075,0.756,0.341,0.599,0.564,�쐼,4.0,��
2022/11/13,04:50,0.593,0.855,0.535,1.076,0.756,0.343,0.599,0.564,�쐼,6.4,��
2022/11/13,05:00,0.591,0.855,0.535,1.076,0.754,0.340,0.599,0.563,�쐼,7.5,��
2022/11/13,05:10,0.594,0.856,0.535,1.075,0.756,0.342,0.601,0.566,��쐼,7.0,��
2022/11/13,05:20,0.593,0.855,0.534,1.076,0.755,0.341,0.600,0.565,��쐼,6.3,��
2022/11/13,05:30,0.594,0.855,0.535,1.074,0.757,0.340,0.600,0.564,��쐼,7.3,��
2022/11/13,05:40,0.594,0.857,0.535,1.073,0.755,0.341,0.600,0.565,��쐼,7.9,��
2022/11/13,05:50,0.595,0.855,0.536,1.074,0.757,0.341,0.601,0.564,��쐼,8.8,��
2022/11/13,06:00,0.593,0.855,0.535,1.075,0.755,0.342,0.599,0.564,�쐼,8.8,��
2022/11/13,06:10,0.594,0.858,0.535,1.078,0.757,0.342,0.600,0.565,�쐼,5.9,��
2022/11/13,06:20,0.593,0.858,0.534,1.074,0.756,0.340,0.599,0.565,�쐼,6.8,��
2022/11/13,06:30,0.594,0.857,0.535,1.077,0.756,0.341,0.600,0.565,�쐼,4.4,��
2022/11/13,06:40,0.593,0.856,0.536,1.075,0.753,0.341,0.600,0.566,���쐼,5.5,��
2022/11/13,06:50,0.593,0.856,0.535,1.078,0.756,0.342,0.599,0.564,�쐼,6.4,��
2022/11/13,07:00,0.594,0.856,0.535,1.076,0.757,0.340,0.601,0.563,��쐼,2.9,��
2022/11/13,07:10,0.596,0.857,0.535,1.075,0.755,0.341,0.601,0.564,��,2.0,��
2022/11/13,07:20,0.594,0.856,0.534,1.077,0.756,0.341,0.602,0.565,��쓌,2.0,��
2022/11/13,07:30,0.595,0.857,0.536,1.073,0.757,0.341,0.600,0.564,��쓌,3.6,��
2022/11/13,07:40,0.594,0.856,0.537,1.075,0.756,0.341,0.600,0.564,��,4.0,��
2022/11/13,07:50,0.594,0.853,0.536,1.077,0.757,0.341,0.600,0.563,��,4.2,��
2022/11/13,08:00,0.594,0.855,0.537,1.076,0.756,0.340,0.601,0.565,��,5.1,��
2022/11/13,08:10,0.595,0.856,0.535,1.077,0.756,0.340,0.601,0.565,��,4.5,��
2022/11/13,08:20,0.594,0.855,0.535,1.076,0.757,0.341,0.602,0.564,��쓌,3.3,��
2022/11/13,08:30,0.596,0.856,0.536,1.075,0.756,0.344,0.601,0.566,��쐼,1.9,��
2022/11/13,08:40,0.594,0.857,0.536,1.075,0.756,0.341,0.599,0.565,��쐼,6.0,��
2022/11/13,08:50,0.594,0.853,0.537,1.077,0.756,0.343,0.598,0.567,��,6.7,��
2022/11/13,09:00,0.595,0.855,0.537,1.079,0.754,0.342,0.599,0.566,��,5.8,��
2022/11/13,09:10,0.594,0.854,0.538,1.079,0.757,0.341,0.599,0.566,��,5.9,��
2022/11/13,09:20,0.595,0.855,0.536,1.077,0.757,0.340,0.599,0.566,��,5.5,��
2022/11/13,09:30,0.594,0.856,0.537,1.078,0.758,0.341,0.599,0.567,��,5.9,��
2022/11/13,09:40,0.594,0.856,0.537,1.076,0.755,0.341,0.599,0.566,��쓌,6.5,��
2022/11/13,09:50,0.594,0.857,0.536,1.077,0.756,0.340,0.601,0.565,��,6.0,��
2022/11/13,10:00,0.594,0.857,0.535,1.076,0.754,0.341,0.602,0.566,��,5.0,��
2022/11/13,10:10,0.595,0.855,0.536,1.077,0.755,0.340,0.600,0.565,��,5.3,��
2022/11/13,10:20,0.596,0.857,0.534,1.079,0.757,0.340,0.599,0.564,��,7.4,��
2022/11/13,10:30,0.594,0.856,0.535,1.077,0.755,0.341,0.600,0.566,��,7.4,��
2022/11/13,10:40,0.596,0.855,0.534,1.076,0.755,0.341,0.599,0.564,��,6.6,��
2022/11/13,10:50,0.595,0.858,0.536,1.078,0.757,0.340,0.600,0.564,��,6.6,��
2022/11/13,11:00,0.596,0.858,0.536,1.079,0.758,0.341,0.601,0.564,��,6.9,��
2022/11/13,11:10,0.596,0.857,0.536,1.079,0.755,0.341,0.600,0.563,��쓌,8.8,��
2022/11/13,11:20,0.596,0.858,0.537,1.077,0.754,0.341,0.600,0.565,��쓌,9.3,��
2022/11/13,11:30,0.594,0.856,0.537,1.079,0.756,0.341,0.600,0.565,��,6.9,��
2022/11/13,11:40,0.595,0.857,0.537,1.080,0.758,0.341,0.601,0.564,��쓌,6.1,��
2022/11/13,11:50,0.595,0.856,0.536,1.077,0.758,0.341,0.602,0.564,��쓌,8.8,��
2022/11/13,12:00,0.597,0.857,0.534,1.080,0.757,0.341,0.602,0.563,��쓌,8.8,��
2022/11/13,12:10,0.596,0.857,0.536,1.079,0.759,0.342,0.602,0.565,��쓌,10.5,��
2022/11/13,12:20,0.596,0.857,0.536,1.081,0.756,0.342,0.602,0.564,��쓌,8.4,��
2022/11/13,12:30,0.596,0.857,0.534,1.078,0.755,0.342,0.602,0.563,��쓌,7.2,��
2022/11/13,12:40,0.596,0.855,0.536,1.077,0.757,0.341,0.601,0.565,��,6.3,��
2022/11/13,12:50,0.597,0.856,0.536,1.077,0.757,0.341,0.603,0.564,��,6.0,��
2022/11/13,13:00,0.597,0.856,0.537,1.079,0.757,0.341,0.602,0.564,��,5.0,��
2022/11/13,13:10,0.595,0.855,0.535,1.077,0.758,0.342,0.601,0.565,��쓌,6.0,��
2022/11/13,13:20,0.596,0.855,0.535,1.078,0.757,0.340,0.602,0.564,�쓌,4.8,��
2022/11/13,13:30,0.596,0.857,0.536,1.080,0.757,0.342,0.600,0.565,��,3.2,��
2022/11/13,13:40,0.597,0.857,0.536,1.078,0.759,0.342,0.601,0.566,��,3.6,��
2022/11/13,13:50,0.597,0.857,0.537,1.079,0.758,0.342,0.601,0.563,��,4.6,��
2022/11/13,14:00,0.596,0.856,0.537,1.081,0.757,0.342,0.603,0.564,�쐼,6.3,��
2022/11/13,14:10,0.597,0.857,0.537,1.082,0.757,0.342,0.602,0.567,�쐼,8.6,��
2022/11/13,14:20,0.595,0.858,0.539,1.080,0.759,0.341,0.602,0.565,��쐼,9.1,��
2022/11/13,14:30,0.597,0.857,0.539,1.079,0.757,0.342,0.602,0.566,��쐼,10.2,��
2022/11/13,14:40,0.596,0.856,0.538,1.079,0.758,0.343,0.603,0.564,��쐼,7.7,��
2022/11/13,14:50,0.597,0.856,0.538,1.081,0.758,0.342,0.601,0.564,��,8.7,��
2022/11/13,15:00,0.596,0.858,0.538,1.081,0.757,0.341,0.602,0.565,��쐼,9.3,��
2022/11/13,15:10,0.597,0.858,0.537,1.080,0.758,0.342,0.600,0.566,��쐼,9.1,��
2022/11/13,15:20,0.597,0.855,0.537,1.079,0.755,0.342,0.600,0.566,��쐼,8.0,��
2022/11/13,15:30,0.596,0.857,0.535,1.080,0.759,0.342,0.602,0.566,��쐼,8.5,��
2022/11/13,15:40,0.596,0.858,0.536,1.081,0.757,0.342,0.603,0.564,��쐼,8.4,��
2022/11/13,15:50,0.596,0.856,0.537,1.080,0.757,0.342,0.600,0.564,��,9.2,�L
2022/11/13,16:00,0.596,0.858,0.536,1.081,0.758,0.341,0.601,0.567,��,7.9,�L
2022/11/13,16:10,0.597,0.859,0.536,1.082,0.757,0.343,0.601,0.565,��,7.3,�L
2022/11/13,16:20,0.596,0.859,0.537,1.082,0.756,0.343,0.600,0.566,��,6.4,�L
2022/11/13,16:30,0.596,0.858,0.536,1.081,0.759,0.341,0.602,0.566,��,4.7,�L
2022/11/13,16:40,0.598,0.858,0.540,1.079,0.757,0.343,0.601,0.567,��쓌,6.5,�L
2022/11/13,16:50,0.597,0.860,0.539,1.080,0.759,0.342,0.601,0.568,��쓌,5.9,�L
2022/11/13,17:00,0.598,0.860,0.539,1.080,0.760,0.343,0.601,0.567,��쓌,5.9,�L
2022/11/13,17:10,0.596,0.861,0.540,1.080,0.761,0.344,0.601,0.567,��쓌,7.0,��
2022/11/13,17:20,0.598,0.861,0.541,1.080,0.761,0.342,0.601,0.566,��,6.3,��
2022/11/13,17:30,0.597,0.860,0.540,1.081,0.759,0.343,0.602,0.568,��,6.7,��
2022/11/13,17:40,0.598,0.862,0.541,1.080,0.761,0.343,0.599,0.569,��,6.0,��
2022/11/13,17:50,0.596,0.861,0.540,1.078,0.761,0.342,0.602,0.568,��,6.8,��
2022/11/13,18:00,0.598,0.860,0.540,1.080,0.758,0.342,0.602,0.568,��,5.9,��
2022/11/13,18:10,0.596,0.861,0.540,1.080,0.758,0.343,0.602,0.569,��,6.8,��
2022/11/13,18:20,0.598,0.859,0.539,1.083,0.760,0.343,0.601,0.568,��,6.0,��
2022/11/13,18:30,0.597,0.861,0.538,1.080,0.760,0.342,0.603,0.568,��,7.7,��
2022/11/13,18:40,0.597,0.859,0.538,1.079,0.761,0.343,0.603,0.568,��,7.5,��
2022/11/13,18:50,0.596,0.857,0.539,1.079,0.758,0.342,0.602,0.568,��,7.0,��
2022/11/13,19:00,0.596,0.860,0.538,1.079,0.760,0.344,0.602,0.567,��쐼,6.2,��
2022/11/13,19:10,0.597,0.860,0.538,1.081,0.758,0.341,0.600,0.568,��쐼,5.7,��
2022/11/13,19:20,0.597,0.860,0.538,1.078,0.761,0.343,0.602,0.567,�쐼,5.2,��
2022/11/13,19:30,0.597,0.861,0.540,1.080,0.758,0.342,0.600,0.566,��쐼,5.3,��
2022/11/13,19:40,0.596,0.858,0.538,1.080,0.761,0.343,0.602,0.568,��쐼,4.3,��
2022/11/13,19:50,0.597,0.860,0.539,1.080,0.760,0.342,0.602,0.568,��쐼,5.1,��
2022/11/13,20:00,0.597,0.859,0.539,1.080,0.761,0.342,0.603,0.567,�쐼,3.8,��
2022/11/13,20:10,0.597,0.859,0.539,1.081,0.760,0.341,0.602,0.568,�쐼,4.0,��
2022/11/13,20:20,0.597,0.860,0.539,1.077,0.761,0.343,0.602,0.568,�쐼,2.3,��
2022/11/13,20:30,0.595,0.859,0.539,1.080,0.760,0.343,0.601,0.568,�쐼,1.9,��
2022/11/13,20:40,0.596,0.861,0.539,1.081,0.759,0.342,0.601,0.568,��,1.5,��
2022/11/13,20:50,0.596,0.860,0.539,1.081,0.760,0.343,0.600,0.566,��,1.9,��
2022/11/13,21:00,0.596,0.859,0.539,1.080,0.760,0.341,0.600,0.567,��,4.8,��
2022/11/13,21:10,0.598,0.860,0.537,1.078,0.758,0.341,0.602,0.566,���k��,7.3,��
2022/11/13,21:20,0.596,0.861,0.538,1.082,0.759,0.343,0.601,0.568,���k��,7.7,��
2022/11/13,21:30,0.597,0.861,0.537,1.078,0.761,0.343,0.601,0.567,���k��,8.7,��
2022/11/13,21:40,0.596,0.863,0.539,1.084,0.761,0.342,0.603,0.567,��,9.9,��
2022/11/13,21:50,0.597,0.861,0.537,1.083,0.761,0.342,0.601,0.566,��,10.0,��
2022/11/13,22:00,0.598,0.861,0.537,1.080,0.761,0.341,0.602,0.565,��,9.8,��
2022/11/13,22:10,0.597,0.862,0.537,1.082,0.759,0.342,0.602,0.566,���k��,8.5,��
2022/11/13,22:20,0.599,0.859,0.537,1.082,0.759,0.341,0.600,0.565,���k��,4.8,��
2022/11/13,22:30,0.598,0.859,0.536,1.082,0.758,0.342,0.601,0.566,���k��,7.0,��
2022/11/13,22:40,0.596,0.863,0.537,1.082,0.759,0.342,0.602,0.565,���k��,6.6,��
2022/11/13,22:50,0.599,0.862,0.539,1.082,0.759,0.342,0.602,0.567,���k��,9.6,��
2022/11/13,23:00,0.597,0.861,0.538,1.082,0.758,0.341,0.601,0.567,���k��,8.2,��
2022/11/13,23:10,0.597,0.861,0.538,1.082,0.758,0.343,0.602,0.567,���k��,7.6,��
2022/11/13,23:20,0.599,0.861,0.539,1.082,0.759,0.342,0.602,0.566,��,11.3,��
2022/11/13,23:30,0.598,0.861,0.539,1.085,0.760,0.342,0.602,0.565,���k��,15.2,��
2022/11/13,23:40,0.596,0.860,0.539,1.082,0.758,0.341,0.602,0.567,���k��,14.6,��
2022/11/13,23:50,0.596,0.861,0.539,1.083,0.759,0.342,0.602,0.567,���k��,14.7,��
